Find ION Charismatic Carlus

NORAD ID: 64575 Int'l Des: 2025-135 Owner: DORBIT Country: I operational
LEOCIRCULARRETROGRADESSO

現在のビュー

3D地球を読み込み中...

ION Charismatic Carlusについて

説明を読み込み中...

次回通過

Passes for default location (London). Set your location on the main map for personalized predictions.

高度履歴

Loading altitude history...

軌道要素

1 64575U 25135AZ 26159.31732975 .00000996 00000-0 97213-4 0 9993
2 64575 97.7769 274.4765 0011726 327.6240 32.4259 14.94633470 52609
Epoch: Jun 8, 2026 • Age: 16 hours

現在のステータス

高度 605.2 km
速度 7.56 km/s
衛星直下点 -56.39°S, 161.04°W
打ち上げ日 Jun 23, 2025
運用期間 0.9 years
タイプ other

技術仕様

分類 Payload
質量 150.00 kg
乾燥質量 150.00 kg
総質量 220.00 kg
長さ 0.40 m
直径 0.40 m
スパン 0.40 m
形状 Box
製造者 DORBIT
バスタイプ ION-SC
フェーズステータス In Orbit
所有者/国 DORBIT/I

Most Searched